[[{"header":{"parameterUnit":"m.s-1","parameterCategory":1,"la1":30.2991,"la2":30.254,"lo1":-89.0895,"lo2":-89.0444,"dy":0.0017,"dx":0.0017,"nx":28,"ny":28,"refTime":"2025-12-05T03:00:00:Z","depth":0,"parameterNumber":2,"parameterNumberName":"U-component_of_WINDS"},"data":[0,0,0,0,0,0,0,0,0,0,0,0,0,0,0,0,0,0,0,0,0,0,0,0,0,0,0,0,0,0,0,0,0,0,0,0,0,0,0,0,0,0,0,0,0,0,0,0,0,0,0,0,0,0,0,0,0,0,0.4213,0.4212,0,0.4162,0.4162,0.4161,0.4146,0.4146,0.4146,0.4147,0.4093,0.4091,0.4089,0,0,0,0,0,0,0,0,0,0,0,0,0,0.4294,0.4293,0.4213,0.4212,0.4212,0.4162,0.4162,0.4161,0.4146,0.4146,0.4146,0.4147,0.4093,0.4091,0.4089,0,0,0,0,0,0,0,0,0,0,0,0,0,0.4253,0.4293,0.4213,0.4198,0.4196,0.4162,0.4161,0.4161,0.4146,0.4146,0.4146,0.4147,0.4094,0.4091,0.4089,0.4065,0,0,0.4081,0.408,0,0,0,0,0,0,0,0,0.4255,0.425,0.4201,0.4199,0.4197,0.4161,0.417,0.4129,0.4146,0.4165,0.4147,0.4147,0.4115,0.4111,0.41,0.4063,0.4061,0.4081,0.4079,0.4078,0.4078,0,0,0,0,0,0,0,0.4258,0.4252,0.4193,0.42,0.4198,0.4193,0.4188,0.4162,0.4138,0.4163,0.4162,0.4156,0.4114,0.4103,0.4099,0.406,0.4081,0.4079,0.4077,0.4076,0.4,0.3999,0,0,0,0,0,0,0.4264,0.4254,0.4194,0.4191,0.4228,0.4192,0.4185,0.4172,0.4138,0.4134,0.4156,0.4156,0.4107,0.4102,0.4097,0.4066,0.4078,0.4076,0.4075,0.4,0.4,0.3999,0,0,0,0,0,0,0.4266,0.4259,0.4196,0.4222,0.4214,0.419,0.4175,0.4171,0.416,0.4133,0.4128,0.4149,0.4107,0.41,0.4073,0.4064,0.4075,0.4073,0.4001,0.4,0.4,0.4006,0,0,0,0,0,0,0.4268,0.4259,0.4251,0.4222,0.4213,0.4174,0.4174,0.4169,0.4155,0.4155,0.4125,0.4121,0.4107,0.4077,0.4071,0.4061,0.4071,0.4002,0.4001,0.4,0.4006,0.4005,0.4005,0,0,0,0,0,0.4271,0.4254,0.425,0.4243,0.4202,0.4174,0.4168,0.4153,0.4155,0.4145,0.4128,0.4122,0.4067,0.4075,0.4067,0.4057,0.4002,0.4001,0.4,0.4007,0.4006,0.4005,0,0,0,0,0,0,0.4281,0.425,0.4245,0.4219,0.4199,0.4171,0.4159,0.4152,0.4131,0.4131,0.4112,0.4106,0.408,0.4066,0.4075,0.4032,0.4034,0.4031,0.4042,0.404,0.404,0.4043,0.4068,0,0,0,0,0,0.428,0.4261,0.4235,0.4214,0.4204,0.4184,0.4171,0.4161,0.4139,0.413,0.4111,0.409,0.4068,0.4054,0.4032,0.4005,0.3997,0.3994,0.3993,0.3992,0.399,0.3973,0.3971,0.3995,0.3995,0.3996,0,0,0.4278,0.4259,0.4248,0.4216,0.4199,0.4179,0.4176,0.4155,0.414,0.4127,0.41,0.4086,0.4061,0.4033,0.402,0.4021,0.3982,0.3991,0.3991,0.3988,0.3972,0.397,0.3968,0.3995,0.3995,0.3995,0,0,0.4264,0.4248,0.4229,0.4212,0.4187,0.4174,0.4169,0.4142,0.4132,0.4105,0.4095,0.4076,0.4039,0.4021,0.4007,0.3987,0.398,0.398,0.3975,0.396,0.3958,0.3956,0.3947,0.3945,0.3978,0.3978,0.3978,0,0.4264,0.4234,0.4219,0.4198,0.4184,0.4173,0.4152,0.4137,0.4106,0.4096,0.4098,0.405,0.4032,0.4,0.3995,0.3985,0.3978,0.3983,0.3959,0.3957,0.3955,0.3947,0.3944,0.3978,0.3978,0.3978,0.3978,0,0.4235,0.4214,0.4201,0.4172,0.4157,0.4136,0.4118,0.4104,0.4095,0.4081,0.4054,0.4032,0.4006,0.3998,0.3989,0.3964,0.3965,0.3963,0.3965,0.3954,0.3945,0.3942,0.3979,0.3979,0.3979,0.3978,0,0,0.4225,0.4188,0.4184,0.417,0.4142,0.4125,0.4104,0.4079,0.4067,0.4046,0.4027,0.3996,0.3994,0.3978,0.3968,0.3954,0.3938,0.3954,0.3953,0.395,0.3908,0.3909,0.3905,0.3934,0.3933,0.3933,0.391,0,0.4206,0.4168,0.4154,0.4123,0.4103,0.4092,0.4074,0.4054,0.4041,0.4021,0.4006,0.3984,0.3983,0.3974,0.396,0.3943,0.3929,0.3945,0.3915,0.3914,0.392,0.3901,0.3902,0.3881,0.3907,0.3906,0.3906,0,0.4179,0.4158,0.4125,0.4099,0.409,0.4074,0.4049,0.4031,0.4009,0.4,0.3983,0.3973,0.395,0.3954,0.3921,0.3932,0.3919,0.3909,0.3908,0.3903,0.3908,0.3895,0.3875,0.3871,0.3901,0.3901,0.3902,0,0.4173,0.4137,0.4112,0.4101,0.4071,0.406,0.4046,0.4024,0.401,0.3988,0.3979,0.3955,0.3941,0.3923,0.3906,0.3911,0.3875,0.3878,0.3865,0.3866,0.3857,0.3857,0.3833,0.3851,0.3851,0.3851,0.3851,0,0.4153,0.4132,0.4109,0.4094,0.4071,0.4055,0.4033,0.4019,0.3999,0.398,0.397,0.3952,0.3933,0.3912,0.39,0.3874,0.3868,0.3859,0.3856,0.3859,0.386,0.3849,0.385,0.385,0.3851,0.3851,0.3851,0,0.4142,0.4126,0.4098,0.4072,0.4065,0.4049,0.4026,0.401,0.3997,0.3973,0.3966,0.3945,0.392,0.3903,0.3871,0.3863,0.3834,0.3832,0.3842,0.384,0.3828,0.3829,0.3795,0.3789,0.3812,0.3812,0.3812,0,0.4129,0.4113,0.4086,0.4073,0.406,0.4039,0.4024,0.4008,0.3993,0.3966,0.3954,0.3929,0.3908,0.3869,0.385,0.3826,0.3821,0.3811,0.3818,0.3821,0.382,0.382,0.3818,0.381,0.381,0.3809,0.3809,0,0.4108,0.4101,0.4081,0.4057,0.404,0.4021,0.4001,0.3991,0.3972,0.3955,0.3931,0.3914,0.3882,0.3857,0.3831,0.3817,0.3809,0.3808,0.3803,0.3806,0.3812,0.3807,0.3838,0.3808,0.3808,0.3808,0.3808,0.3809,0.4095,0.408,0.4058,0.4036,0.402,0.4002,0.3985,0.397,0.3949,0.3922,0.3914,0.3888,0.3866,0.383,0.3816,0.3794,0.3795,0.3789,0.3787,0.3785,0.3785,0.3817,0.379,0.379,0.379,0.379,0.379,0,0.4072,0.4058,0.4037,0.4011,0.3993,0.3989,0.3967,0.3952,0.3929,0.3909,0.3889,0.386,0.3836,0.3815,0.379,0.3777,0.3773,0.3771,0.3771,0.3767,0.3786,0.3792,0.3775,0.3775,0.3775,0.3775,0.3775,0.3775,0.4058,0.4032,0.4023,0.3989,0.3975,0.3949,0.3937,0.392,0.3904,0.3873,0.3853,0.384,0.3819,0.3792,0.377,0.3764,0.3755,0.3753,0.3747,0.3764,0.3766,0.3768,0.3773,0.3751,0.3751,0.3729,0.3729,0.3729]},{"header":{"parameterUnit":"m.s-1","parameterCategory":1,"la1":30.2991,"la2":30.254,"lo1":-89.0895,"lo2":-89.0444,"dy":0.0017,"dx":0.0017,"nx":28,"ny":28,"refTime":"2025-12-05T03:00:00:Z","depth":0,"parameterNumber":3,"parameterNumberName":"V-component_of_WINDS"},"data":[0,0,0,0,0,0,0,0,0,0,0,0,0,0,0,0,0,0,0,0,0,0,0,0,0,0,0,0,0,0,0,0,0,0,0,0,0,0,0,0,0,0,0,0,0,0,0,0,0,0,0,0,0,0,0,0,0,0,-3.3054,-3.3055,0,-3.3133,-3.3134,-3.3135,-3.3114,-3.3113,-3.3111,-3.311,-3.3187,-3.319,-3.3194,0,0,0,0,0,0,0,0,0,0,0,0,0,-3.2881,-3.2884,-3.3054,-3.3055,-3.3056,-3.3133,-3.3134,-3.3135,-3.3115,-3.3113,-3.3111,-3.3109,-3.3186,-3.319,-3.3194,0,0,0,0,0,0,0,0,0,0,0,0,0,-3.2958,-3.2885,-3.3054,-3.3055,-3.3056,-3.3133,-3.3134,-3.3136,-3.3115,-3.3113,-3.311,-3.3108,-3.3184,-3.3189,-3.3195,-3.3274,0,0,-3.3211,-3.3213,0,0,0,0,0,0,0,0,-3.2953,-3.2964,-3.3054,-3.3055,-3.3056,-3.3112,-3.3101,-3.3182,-3.3116,-3.3093,-3.311,-3.3107,-3.3164,-3.317,-3.319,-3.3277,-3.3281,-3.3211,-3.3214,-3.3217,-3.3218,0,0,0,0,0,0,0,-3.2948,-3.2961,-3.3085,-3.3055,-3.3057,-3.3051,-3.3059,-3.3117,-3.314,-3.3094,-3.3093,-3.3103,-3.3164,-3.3185,-3.3192,-3.3282,-3.3211,-3.3216,-3.3219,-3.3221,-3.3437,-3.344,0,0,0,0,0,0,-3.2942,-3.2956,-3.3083,-3.3088,-3.2998,-3.3056,-3.3065,-3.3096,-3.3139,-3.3144,-3.3105,-3.3102,-3.3177,-3.3186,-3.3194,-3.329,-3.3217,-3.3221,-3.3225,-3.3435,-3.3438,-3.3441,0,0,0,0,0,0,-3.2939,-3.2954,-3.308,-3.3022,-3.3037,-3.3061,-3.3096,-3.3099,-3.3121,-3.3147,-3.3151,-3.3123,-3.3176,-3.3187,-3.3254,-3.3292,-3.3224,-3.3229,-3.3432,-3.3436,-3.3439,-3.3481,0,0,0,0,0,0,-3.2934,-3.2953,-3.2984,-3.3023,-3.3041,-3.314,-3.3099,-3.3102,-3.313,-3.3127,-3.3165,-3.3169,-3.3175,-3.3247,-3.326,-3.3298,-3.3233,-3.3428,-3.3433,-3.3438,-3.3476,-3.3486,-3.3494,0,0,0,0,0,-3.2928,-3.2992,-3.2986,-3.3001,-3.308,-3.3142,-3.3152,-3.3158,-3.3133,-3.3164,-3.3181,-3.3168,-3.3286,-3.3254,-3.3268,-3.3309,-3.3426,-3.3432,-3.3438,-3.3472,-3.3484,-3.3494,0,0,0,0,0,0,-3.2956,-3.2997,-3.2991,-3.3069,-3.3103,-3.3138,-3.3178,-3.317,-3.321,-3.3205,-3.321,-3.3219,-3.3288,-3.3305,-3.3268,-3.3387,-3.3352,-3.3361,-3.3373,-3.3385,-3.3393,-3.3387,-3.3237,0,0,0,0,0,-3.2971,-3.3019,-3.3052,-3.3118,-3.3135,-3.3154,-3.3181,-3.3183,-3.3217,-3.323,-3.3252,-3.3285,-3.3329,-3.3358,-3.34,-3.3479,-3.3486,-3.3514,-3.3522,-3.3529,-3.3537,-3.3579,-3.3591,-3.346,-3.346,-3.346,0,0,-3.3003,-3.3032,-3.3061,-3.3125,-3.315,-3.3199,-3.3166,-3.3218,-3.3253,-3.3238,-3.3303,-3.332,-3.3356,-3.343,-3.3463,-3.3446,-3.3575,-3.3537,-3.3542,-3.3546,-3.3586,-3.3599,-3.361,-3.3464,-3.3463,-3.3462,0,0,-3.3086,-3.3113,-3.3171,-3.3198,-3.3238,-3.325,-3.3264,-3.3301,-3.3313,-3.3378,-3.3368,-3.3409,-3.3485,-3.3512,-3.3535,-3.3628,-3.3617,-3.3641,-3.3687,-3.3728,-3.3738,-3.3748,-3.378,-3.3792,-3.3649,-3.3649,-3.3649,0,-3.3121,-3.3194,-3.3201,-3.3255,-3.3283,-3.3272,-3.333,-3.3355,-3.3407,-3.3425,-3.3406,-3.3502,-3.3525,-3.3604,-3.3627,-3.3647,-3.3662,-3.3637,-3.3737,-3.3746,-3.3755,-3.3786,-3.3798,-3.3652,-3.3651,-3.3651,-3.3651,0,-3.3234,-3.3285,-3.3327,-3.3379,-3.3411,-3.3466,-3.348,-3.3512,-3.3511,-3.3525,-3.3591,-3.362,-3.3667,-3.3686,-3.3685,-3.3765,-3.3753,-3.3736,-3.37,-3.377,-3.3799,-3.3811,-3.3656,-3.3655,-3.3654,-3.3653,0,0,-3.3337,-3.3392,-3.3407,-3.343,-3.3473,-3.3512,-3.3567,-3.3615,-3.3641,-3.3677,-3.3722,-3.3787,-3.3771,-3.3797,-3.3799,-3.3836,-3.3907,-3.3813,-3.3814,-3.3829,-3.3995,-3.4008,-3.4022,-3.39,-3.3902,-3.3904,-3.3992,0,-3.3423,-3.3521,-3.3529,-3.3616,-3.3663,-3.3653,-3.3701,-3.3732,-3.3746,-3.3786,-3.3801,-3.3847,-3.3823,-3.3838,-3.3874,-3.3891,-3.394,-3.3884,-3.394,-3.3942,-3.3931,-3.4037,-3.4051,-3.4133,-3.4003,-3.4005,-3.4007,0,-3.3537,-3.3578,-3.367,-3.3707,-3.3727,-3.3769,-3.3814,-3.3853,-3.3887,-3.3895,-3.3925,-3.3922,-3.3977,-3.394,-3.4015,-3.3977,-3.4,-3.4012,-3.4015,-3.402,-3.3978,-3.4044,-3.4159,-3.4171,-3.4025,-3.4024,-3.4022,0,-3.3602,-3.3679,-3.3744,-3.3764,-3.3809,-3.3839,-3.3859,-3.3892,-3.392,-3.3958,-3.3976,-3.402,-3.4043,-3.4077,-3.4085,-3.4058,-3.416,-3.4124,-3.4166,-3.4166,-3.4188,-3.4186,-3.4307,-3.4204,-3.4203,-3.4203,-3.4203,0,-3.3697,-3.3754,-3.3774,-3.3814,-3.3877,-3.3885,-3.3946,-3.3964,-3.3993,-3.4036,-3.403,-3.4069,-3.4078,-3.4119,-3.4126,-3.4187,-3.4197,-3.4204,-3.4205,-3.4205,-3.4204,-3.4219,-3.4214,-3.4206,-3.4206,-3.4205,-3.4205,0,-3.378,-3.3796,-3.3866,-3.3903,-3.3914,-3.3958,-3.3989,-3.4027,-3.4041,-3.4094,-3.4107,-3.4128,-3.4176,-3.4188,-3.4244,-3.4249,-3.432,-3.4316,-3.4309,-3.4308,-3.435,-3.4346,-3.4485,-3.4504,-3.4389,-3.439,-3.4391,0,-3.3839,-3.3883,-3.3925,-3.3954,-3.3975,-3.4021,-3.405,-3.4059,-3.409,-3.4133,-3.4165,-3.4212,-3.4251,-3.4328,-3.4347,-3.439,-3.4386,-3.4432,-3.4393,-3.4391,-3.4386,-3.4383,-3.4387,-3.4439,-3.4441,-3.4442,-3.4442,0,-3.3943,-3.3949,-3.3992,-3.4038,-3.4073,-3.4109,-3.4144,-3.4167,-3.4181,-3.4215,-3.4265,-3.4295,-3.4353,-3.44,-3.4444,-3.4462,-3.4455,-3.4455,-3.4467,-3.4466,-3.446,-3.4464,-3.4329,-3.4451,-3.4451,-3.445,-3.4449,-3.4449,-3.4015,-3.4054,-3.4089,-3.4137,-3.4165,-3.4197,-3.4234,-3.4253,-3.4295,-3.4344,-3.4347,-3.4401,-3.4433,-3.4492,-3.4513,-3.4554,-3.454,-3.4558,-3.4562,-3.4566,-3.457,-3.4454,-3.4562,-3.4562,-3.4562,-3.4561,-3.4561,0,-3.4118,-3.4141,-3.4185,-3.4234,-3.4272,-3.4263,-3.43,-3.4332,-3.438,-3.4412,-3.445,-3.4507,-3.4552,-3.4575,-3.462,-3.4649,-3.4646,-3.466,-3.4658,-3.4662,-3.458,-3.4565,-3.4661,-3.4661,-3.4661,-3.4661,-3.4661,-3.4661,-3.4176,-3.4241,-3.4251,-3.4328,-3.435,-3.4403,-3.4426,-3.4455,-3.4481,-3.4545,-3.4583,-3.4598,-3.4626,-3.4673,-3.4714,-3.472,-3.4736,-3.4752,-3.4755,-3.4678,-3.4668,-3.4658,-3.4644,-3.4755,-3.4755,-3.4834,-3.4834,-3.4835]}]]